CW3001 Weather Reports


Display with metric or nautical units.
time (UTC)temp
F
wind
direction
speed
MPH
gust
MPH
rain 1hr
in
rain 24hr
in
rain mn
in
humidity
%
barometer
mb
20260906151934 76 159 4.0 11.0 0.00 0.00 0.00 46 1022.5
20260906151831 76 175 6.0 12.0 0.00 0.00 0.00 46 1022.5
20260906150934 76 145 6.0 12.0 0.00 0.00 0.00 46 1022.4
20260906150431 76 148 3.0 11.0 0.00 0.00 0.00 46 1022.4
20260906145932 76 154 7.0 12.0 0.00 0.00 0.00 46 1022.5
20260906145431 76 162 8.0 12.0 0.00 0.00 0.00 46 1022.3
20260906144934 76 157 4.0 10.0 0.00 0.00 0.00 46 1022.4
20260906144431 76 157 5.0 10.0 0.00 0.00 0.00 47 1022.3
20260906143932 76 206 6.0 12.0 0.00 0.00 0.00 47 1022.5
20260906143819 76 141 8.0 12.0 0.00 0.00 0.00 44 1022.6
20260906143211 76 154 7.0 10.0 0.00 0.00 0.00 45 1022.6
20260906143101 76 164 7.0 11.0 0.00 0.00 0.00 45 1022.7
20260906141933 76 193 6.0 9.0 0.00 0.00 0.00 47 1022.7
20260906141432 76 197 6.0 9.0 0.00 0.00 0.00 48 1022.8
20260906141321 76 172 5.0 12.0 0.00 0.00 0.00 48 1022.7
20260906140818 76 161 7.0 12.0 0.00 0.00 0.00 48 1022.9
20260906135932 76 149 5.0 10.0 0.00 0.00 0.00 49 1022.8
20260906135433 75 152 5.0 12.0 0.00 0.00 0.00 49 1023.0
20260906134933 76 157 6.0 14.0 0.00 0.00 0.00 48 1023.1
20260906134431 76 154 6.0 14.0 0.00 0.00 0.00 47 1023.2
20260906133935 75 147 5.0 12.0 0.00 0.00 0.00 47 1023.2
20260906133432 75 155 7.0 13.0 0.00 0.00 0.00 48 1023.2
20260906133321 75 149 8.0 13.0 0.00 0.00 0.00 48 1023.1
20260906132459 75 165 6.0 13.0 0.00 0.00 0.00 49 1023.3
20260906131933 75 149 4.0 10.0 0.00 0.00 0.00 49 1023.4
20260906131433 74 161 3.0 14.0 0.00 0.00 0.00 49 1023.6
20260906130932 75 152 10.0 14.0 0.00 0.00 0.00 47 1023.6
20260906130433 75 154 9.0 12.0 0.00 0.00 0.00 48 1023.6
20260906125931 75 185 5.0 13.0 0.00 0.00 0.00 50 1023.7
20260906125432 75 207 7.0 13.0 0.00 0.00 0.00 50 1023.8
20260906125320 75 144 7.0 13.0 0.00 0.00 0.00 51 1023.7
20260906124432 74 182 6.0 12.0 0.00 0.00 0.00 52 1023.8
20260906123932 74 145 6.0 12.0 0.00 0.00 0.00 52 1023.7
20260906123432 74 148 5.0 12.0 0.00 0.00 0.00 51 1023.9
20260906122933 75 100 8.0 12.0 0.00 0.00 0.00 50 1023.9
20260906122431 74 157 3.0 12.0 0.00 0.00 0.00 53 1024.0
20260906121934 74 159 6.0 12.0 0.00 0.00 0.00 51 1024.1
20260906121826 73 158 6.0 14.0 0.00 0.00 0.00 52 1024.0
20260906120933 73 151 3.0 14.0 0.00 0.00 0.00 52 1024.0
20260906120432 73 151 7.0 10.0 0.00 0.00 0.00 51 1024.0
20260906115931 73 145 3.0 12.0 0.00 0.00 0.00 51 1024.0
20260906115431 73 161 7.0 12.0 0.00 0.00 0.00 52 1024.2
20260906114932 73 180 6.0 12.0 0.00 0.00 0.00 53 1024.3
20260906114430 73 104 8.0 12.0 0.00 0.00 0.00 53 1024.3
20260906113931 73 141 4.0 14.0 0.00 0.00 0.00 53 1024.5
20260906113822 73 148 7.0 14.0 0.00 0.00 0.00 53 1024.5
20260906112930 72 152 7.0 12.0 0.00 0.00 0.00 53 1024.7
20260906112826 72 145 4.0 11.0 0.00 0.00 0.00 53 1024.7
20260906111931 72 148 4.0 12.0 0.00 0.00 0.00 53 1024.7
20260906111430 72 148 8.0 12.0 0.00 0.00 0.00 53 1024.8
20260906110930 72 140 8.0 12.0 0.00 0.00 0.00 53 1024.7
20260906110430 71 169 5.0 11.0 0.00 0.00 0.00 53 1024.8
20260906105929 72 109 5.0 11.0 0.00 0.00 0.00 52 1024.8
20260906105431 72 145 5.0 13.0 0.00 0.00 0.00 52 1024.9
20260906104931 72 165 8.0 13.0 0.00 0.00 0.00 51 1025.1
20260906104429 71 117 2.0 12.0 0.00 0.00 0.00 52 1025.2
20260906103929 70 154 6.0 12.0 0.00 0.00 0.00 52 1025.3
20260906103430 70 148 6.0 9.0 0.00 0.00 0.00 52 1025.3
20260906102930 70 130 3.0 14.0 0.00 0.00 0.00 53 1025.3
20260906102428 70 155 8.0 14.0 0.00 0.00 0.00 52 1025.4
20260906101928 70 172 8.0 13.0 0.00 0.00 0.00 54 1025.5
20260906101428 69 148 5.0 9.0 0.00 0.00 0.00 55 1025.4
20260906101314 69 144 4.0 9.0 0.00 0.00 0.00 55 1025.4
20260906100429 68 164 3.0 10.0 0.00 0.00 0.00 55 1025.6
20260906095929 68 140 4.0 13.0 0.00 0.00 0.00 55 1025.6
20260906095430 68 161 7.0 13.0 0.00 0.00 0.00 54 1025.8
20260906094928 69 172 8.0 13.0 0.00 0.00 0.00 53 1025.8
20260906094429 69 168 7.0 16.0 0.00 0.00 0.00 56 1025.6
20260906093927 68 155 10.0 16.0 0.00 0.00 0.00 55 1025.7
20260906093428 69 85 6.0 11.0 0.00 0.00 0.00 56 1025.7
20260906092928 69 134 6.0 10.0 0.00 0.00 0.00 57 1025.6
20260906092427 68 172 3.0 11.0 0.00 0.00 0.00 59 1025.5
20260906091924 67 169 5.0 14.0 0.00 0.00 0.00 59 1025.7
20260906091425 67 137 7.0 14.0 0.00 0.00 0.00 59 1025.8
20260906090925 67 149 6.0 12.0 0.00 0.00 0.00 60 1026.0
20260906090422 67 142 7.0 12.0 0.00 0.00 0.00 59 1026.0
20260906085919 67 164 4.0 11.0 0.00 0.00 0.00 62 1026.0
20260906085419 67 183 8.0 11.0 0.00 0.00 0.00 60 1026.0
20260906084919 67 151 6.0 11.0 0.00 0.00 0.00 61 1026.0
20260906084417 66 155 4.0 12.0 0.00 0.00 0.00 62 1026.0
20260906083932 66 155 5.0 12.0 0.00 0.00 0.00 62 1026.0
20260906083418 66 120 3.0 12.0 0.00 0.00 0.00 65 1026.0
20260906082929 65 147 6.0 12.0 0.00 0.00 0.00 64 1025.8
20260906082416 65 172 6.0 11.0 0.00 0.00 0.00 65 1026.0
20260906081913 65 144 6.0 11.0 0.00 0.00 0.00 66 1025.9
20260906081413 65 137 3.0 9.0 0.00 0.00 0.00 69 1025.8
20260906080915 64 149 4.0 9.0 0.00 0.00 0.00 68 1026.0
20260906080407 64 145 1.0 7.0 0.00 0.00 0.00 70 1026.0
20260906075904 63 161 3.0 7.0 0.00 0.00 0.00 70 1026.0
20260906075404 63 157 0.0 7.0 0.00 0.00 0.00 72 1026.0
20260906074903 63 152 3.0 7.0 0.00 0.00 0.00 71 1026.1
20260906074404 62 120 1.0 4.0 0.00 0.00 0.00 72 1026.0
20260906073904 62 127 1.0 4.0 0.00 0.00 0.00 73 1026.2
20260906073407 62 152 1.0 7.0 0.00 0.00 0.00 74 1026.1
20260906072903 61 157 4.0 7.0 0.00 0.00 0.00 75 1026.2
20260906072404 60 172 4.0 7.0 0.00 0.00 0.00 75 1026.1
20260906071903 60 152 5.0 7.0 0.00 0.00 0.00 76 1026.2
20260906071405 60 154 2.0 6.0 0.00 0.00 0.00 76 1026.2
20260906070903 60 149 5.0 6.0 0.00 0.00 0.00 77 1026.1
20260906070754 60 134 1.0 5.0 0.00 0.00 0.00 78 1026.1
20260906070252 59 144 2.0 5.0 0.00 0.00 0.00 79 1026.2
20260906065404 59 165 0.0 0.0 0.00 0.00 0.00 81 1026.3
20260906064903 58 165 0.0 0.0 0.00 0.00 0.00 82 1026.3
20260906064405 57 165 0.0 4.0 0.00 0.00 0.00 83 1026.1
20260906063903 56 165 1.0 4.0 0.00 0.00 0.00 85 1026.2
20260906063751 56 165 2.0 4.0 0.00 0.00 0.00 85 1026.1
20260906063144 54 252 0.0 0.0 0.00 0.00 0.00 88 1026.4
20260906063029 0 254 0.0 0.0 0.00 0.00 0.00 1026.2
20260906061905 53 254 0.0 0.0 0.00 0.00 0.00 90 1026.2
20260906061753 53 254 0.0 0.0 0.00 0.00 0.00 90 1026.3
20260906060904 52 254 0.0 0.0 0.00 0.00 0.00 90 1026.3
20260906060404 52 254 0.0 0.0 0.00 0.00 0.00 91 1026.2
20260906055903 51 254 0.0 0.0 0.00 0.00 0.00 91 1026.1
20260906055404 50 254 0.0 0.0 0.00 0.00 0.00 91 1026.1
20260906054903 50 254 0.0 0.0 0.00 0.00 0.00 91 1026.1
20260906054406 49 254 0.0 0.0 0.00 0.00 0.00 91 1026.3
20260906053904 49 254 0.0 0.0 0.00 0.00 0.00 91 1026.4
20260906053407 49 254 0.0 0.0 0.00 0.00 0.00 91 1026.4
20260906052904 48 254 0.0 0.0 0.00 0.00 0.00 91 1026.2
20260906052403 48 254 0.0 0.0 0.00 0.00 0.00 90 1026.3
20260906051904 48 254 0.0 0.0 0.00 0.00 0.00 90 1026.3
20260906051405 48 254 0.0 0.0 0.00 0.00 0.00 90 1026.3
20260906050905 48 254 0.0 0.0 0.00 0.00 0.00 90 1026.1
20260906050405 48 254 0.0 0.0 0.00 0.00 0.00 90 1026.2
20260906045907 48 254 0.0 0.0 0.00 0.00 0.00 90 1026.1
20260906045748 48 254 0.0 0.0 0.00 0.00 0.00 90 1026.1
20260906044905 48 254 0.0 0.0 0.00 0.00 0.00 90 1026.0
20260906044405 48 254 0.0 0.0 0.00 0.00 0.00 90 1026.1
20260906043905 48 254 0.0 0.0 0.00 0.00 0.00 90 1026.2
20260906043405 48 254 0.0 0.0 0.00 0.00 0.00 90 1026.3
20260906042904 48 254 0.0 0.0 0.00 0.00 0.00 90 1026.4
20260906042405 48 254 0.0 0.0 0.00 0.00 0.00 90 1026.3
20260906042148 48 254 0.0 0.0 0.00 0.00 0.00 90 1026.3
20260906042031 48 254 0.0 0.0 0.00 0.00 0.00 90 1026.2
20260906041247 48 254 0.0 0.0 0.00 0.00 0.00 90 1026.2
20260906040405 48 254 0.0 0.0 0.00 0.00 0.00 90 1026.4
20260906035904 48 254 0.0 0.0 0.00 0.00 0.00 90 1026.3
20260906035753 48 254 0.0 0.0 0.00 0.00 0.00 90 1026.4
20260906034904 48 254 0.0 0.0 0.00 0.00 0.00 90 1026.5
20260906034404 48 254 0.0 0.0 0.00 0.00 0.00 90 1026.5
20260906033904 48 254 0.0 0.0 0.00 0.00 0.00 90 1026.7
20260906033404 48 254 0.0 0.0 0.00 0.00 0.00 90 1026.8
20260906032904 48 254 0.0 0.0 0.00 0.00 0.00 90 1026.6
20260906032404 48 254 0.0 0.0 0.00 0.00 0.00 90 1026.8
20260906031904 48 254 0.0 0.0 0.00 0.00 0.00 90 1026.8
20260906031405 48 254 0.0 0.0 0.00 0.00 0.00 90 1026.8
20260906030916 48 254 0.0 0.0 0.00 0.00 0.00 90 1026.8
20260906030404 49 254 0.0 0.0 0.00 0.00 0.00 90 1026.8
20260906025905 49 254 0.0 0.0 0.00 0.00 0.00 90 1026.7
20260906025409 49 254 0.0 0.0 0.00 0.00 0.00 90 1026.8
20260906024906 49 254 0.0 0.0 0.00 0.00 0.00 89 1026.7
20260906024406 49 254 0.0 0.0 0.00 0.00 0.00 90 1026.7
20260906024242 49 254 0.0 0.0 0.00 0.00 0.00 90 1026.8
20260906023405 49 254 0.0 0.0 0.00 0.00 0.00 89 1026.8
20260906022905 49 254 0.0 0.0 0.00 0.00 0.00 89 1026.9
20260906022405 49 254 0.0 0.0 0.00 0.00 0.00 90 1026.7
20260906021904 49 254 0.0 0.0 0.00 0.00 0.00 89 1026.8
20260906021404 49 254 0.0 0.0 0.00 0.00 0.00 89 1026.8
20260906021248 49 254 0.0 0.0 0.00 0.00 0.00 89 1027.0
20260906020407 49 254 0.0 0.0 0.00 0.00 0.00 89 1027.2
20260906015903 49 254 0.0 0.0 0.00 0.00 0.00 89 1027.2
20260906015403 49 254 0.0 0.0 0.00 0.00 0.00 89 1027.1
20260906014903 49 255 0.0 0.0 0.00 0.00 0.00 89 1027.2
20260906014750 49 255 0.0 0.0 0.00 0.00 0.00 89 1027.2
20260906013904 49 254 0.0 0.0 0.00 0.00 0.00 89 1027.2
20260906013403 50 254 0.0 3.0 0.00 0.00 0.00 89 1027.3
20260906012906 50 255 0.0 4.0 0.00 0.00 0.00 89 1027.1
20260906012404 49 255 2.0 4.0 0.00 0.00 0.00 89 1027.0
20260906011906 49 255 0.0 0.0 0.00 0.00 0.00 89 1026.9
20260906011418 50 255 0.0 0.0 0.00 0.00 0.00 89 1027.0
20260906011306 50 255 0.0 0.0 0.00 0.00 0.00 89 1026.8
20260906010403 50 255 0.0 0.0 0.00 0.00 0.00 89 1026.8
20260906005905 50 255 0.0 0.0 0.00 0.00 0.00 89 1026.8
20260906005404 50 255 0.0 0.0 0.00 0.00 0.00 89 1026.9
20260906004903 50 255 0.0 0.0 0.00 0.00 0.00 89 1026.9
20260906004740 50 255 0.0 0.0 0.00 0.00 0.00 88 1026.9
20260906003905 50 255 0.0 0.0 0.00 0.00 0.00 89 1026.9
20260906003403 50 255 0.0 0.0 0.00 0.00 0.00 88 1026.9
20260906002903 50 255 0.0 0.0 0.00 0.00 0.00 89 1027.0
20260906002405 50 255 0.0 0.0 0.00 0.00 0.00 89 1026.8
20260906001905 50 255 0.0 0.0 0.00 0.00 0.00 88 1026.9
20260906001746 50 255 0.0 0.0 0.00 0.00 0.00 88 1027.0
20260906000906 51 255 0.0 0.0 0.00 0.00 0.00 88 1027.0
20260906000405 51 255 0.0 0.0 0.00 0.00 0.00 88 1027.1
20260905235904 51 255 0.0 0.0 0.00 0.00 0.00 88 1027.0
20260905235405 51 255 0.0 0.0 0.00 0.00 0.00 88 1026.9
20260905234904 51 255 0.0 0.0 0.00 0.00 0.00 88 1026.7
20260905234403 51 255 0.0 0.0 0.00 0.00 0.00 88 1026.9
20260905233903 51 255 0.0 0.0 0.00 0.00 0.00 87 1026.8
20260905233407 51 255 0.0 0.0 0.00 0.00 0.00 87 1026.7
20260905232903 51 255 0.0 0.0 0.00 0.00 0.00 87 1026.6
20260905232404 51 255 0.0 0.0 0.00 0.00 0.00 88 1026.7
20260905232147 51 255 0.0 0.0 0.00 0.00 0.00 87 1026.7
20260905232035 51 255 0.0 0.0 0.00 0.00 0.00 88 1026.6
20260905230903 51 255 0.0 0.0 0.00 0.00 0.00 87 1026.6
20260905230405 52 255 0.0 0.0 0.00 0.00 0.00 87 1026.7
20260905225903 52 255 0.0 0.0 0.00 0.00 0.00 87 1026.6
20260905225403 52 255 0.0 0.0 0.00 0.00 0.00 87 1026.6
20260905224903 52 255 0.0 0.0 0.00 0.00 0.00 87 1026.5
20260905224404 52 255 0.0 0.0 0.00 0.00 0.00 87 1026.6
20260905223907 52 255 0.0 0.0 0.00 0.00 0.00 87 1026.7
20260905223404 52 255 0.0 0.0 0.00 0.00 0.00 87 1026.6
20260905222906 52 255 0.0 0.0 0.00 0.00 0.00 87 1026.7
20260905222405 52 255 0.0 0.0 0.00 0.00 0.00 86 1026.6
20260905221904 52 255 0.0 0.0 0.00 0.00 0.00 86 1026.5
20260905221403 52 255 0.0 0.0 0.00 0.00 0.00 86 1026.5
20260905220903 53 255 0.0 0.0 0.00 0.00 0.00 86 1026.5
20260905220403 53 255 0.0 0.0 0.00 0.00 0.00 85 1026.5
20260905215904 53 255 0.0 0.0 0.00 0.00 0.00 86 1026.5
20260905215405 53 255 0.0 0.0 0.00 0.00 0.00 86 1026.5
20260905214905 53 255 0.0 0.0 0.00 0.00 0.00 85 1026.4
20260905214743 53 255 0.0 0.0 0.00 0.00 0.00 85 1026.3
20260905214318 54 254 0.0 0.0 0.00 0.00 0.00 85 1026.4
20260905214311 53 254 0.0 0.0 0.00 0.00 0.00 85 1026.4
20260905213537 53 254 0.0 0.0 0.00 0.00 0.00 85 1026.4
20260905213449 53 255 0.0 0.0 0.00 0.00 0.00 85 1026.4
20260905211905 54 254 0.0 0.0 0.00 0.00 0.00 85 1026.4
20260905211406 54 254 0.0 0.0 0.00 0.00 0.00 84 1026.4
20260905210905 54 255 0.0 2.0 0.00 0.00 0.00 84 1026.4
20260905210404 54 255 0.0 3.0 0.00 0.00 0.00 84 1026.4
20260905205903 54 255 2.0 3.0 0.00 0.00 0.00 84 1026.5
20260905205642 55 321 0.0 1.0 0.00 0.00 0.00 83 1026.3
20260905205530 55 255 0.0 3.0 0.00 0.00 0.00 84 1026.3
20260905204403 55 321 0.0 3.0 0.00 0.00 0.00 83 1026.2
20260905203904 55 321 2.0 3.0 0.00 0.00 0.00 83 1026.3
20260905203757 55 321 2.0 3.0 0.00 0.00 0.00 83 1026.1
20260905202904 55 321 0.0 0.0 0.00 0.00 0.00 82 1026.1
20260905202405 55 321 0.0 0.0 0.00 0.00 0.00 82 1026.0
20260905201905 56 321 0.0 0.0 0.00 0.00 0.00 82 1026.0
20260905201405 56 321 0.0 0.0 0.00 0.00 0.00 82 1026.0
20260905200906 56 321 0.0 0.0 0.00 0.00 0.00 82 1026.0
20260905200404 56 323 0.0 0.0 0.00 0.00 0.00 81 1026.0
20260905195904 57 323 0.0 0.0 0.00 0.00 0.00 80 1025.9
20260905195755 57 323 0.0 0.0 0.00 0.00 0.00 80 1025.9
20260905195248 57 321 0.0 0.0 0.00 0.00 0.00 79 1026.0
20260905194406 57 321 0.0 0.0 0.00 0.00 0.00 79 1026.0
20260905194253 58 321 0.0 0.0 0.00 0.00 0.00 79 1026.0
20260905193404 58 321 0.0 0.0 0.00 0.00 0.00 78 1026.0
20260905192905 58 321 0.0 0.0 0.00 0.00 0.00 78 1026.0
20260905192644 59 321 0.0 0.0 0.00 0.00 0.00 77 1025.9
20260905192533 58 321 0.0 0.0 0.00 0.00 0.00 77 1025.9
20260905191404 59 321 0.0 0.0 0.00 0.00 0.00 76 1026.0
20260905190903 60 321 0.0 0.0 0.00 0.00 0.00 75 1025.8
20260905190404 60 321 0.0 0.0 0.00 0.00 0.00 74 1025.7
20260905190240 60 321 0.0 0.0 0.00 0.00 0.00 73 1025.8
20260905185404 61 321 0.0 3.0 0.00 0.00 0.00 72 1025.8
20260905184904 61 321 1.0 3.0 0.00 0.00 0.00 72 1025.6
20260905184402 61 323 2.0 4.0 0.00 0.00 0.00 71 1025.7
20260905183903 62 323 2.0 4.0 0.00 0.00 0.00 70 1025.7
20260905183757 62 320 1.0 4.0 0.00 0.00 0.00 69 1025.7
20260905182905 62 320 1.0 7.0 0.00 0.00 0.00 69 1025.6
20260905182404 63 323 3.0 7.0 0.00 0.00 0.00 69 1025.6
20260905181905 63 323 3.0 6.0 0.00 0.00 0.00 68 1025.5
20260905181405 63 340 4.0 6.0 0.00 0.00 0.00 68 1025.5
20260905180903 64 336 3.0 6.0 0.00 0.00 0.00 67 1025.5
20260905180403 64 327 3.0 7.0 0.00 0.00 0.00 66 1025.5
20260905175903 64 336 4.0 9.0 0.00 0.00 0.00 66 1025.5
20260905175405 64 330 4.0 10.0 0.00 0.00 0.00 66 1025.4
20260905174905 65 0 4.0 11.0 0.00 0.00 0.00 65 1025.4
20260905174403 65 320 5.0 12.0 0.00 0.00 0.00 64 1025.3
20260905173902 65 303 7.0 13.0 0.00 0.00 0.00 64 1025.4
20260905173748 65 338 6.0 13.0 0.00 0.00 0.00 63 1025.4
20260905172916 65 324 6.0 12.0 0.00 0.00 0.00 63 1025.4
20260905172404 65 326 6.0 13.0 0.00 0.00 0.00 62 1025.4
20260905171901 66 336 7.0 13.0 0.00 0.00 0.00 62 1025.3
20260905171402 66 338 4.0 11.0 0.00 0.00 0.00 62 1025.3
20260905171247 66 324 4.0 12.0 0.00 0.00 0.00 62 1025.4
20260905170402 66 0 6.0 12.0 0.00 0.00 0.00 61 1025.3
20260905165904 66 329 2.0 12.0 0.00 0.00 0.00 62 1025.2
20260905165401 66 313 5.0 12.0 0.00 0.00 0.00 62 1025.2
20260905164901 66 321 6.0 14.0 0.00 0.00 0.00 61 1025.1
20260905164401 66 271 8.0 14.0 0.00 0.00 0.00 61 1025.1
20260905163901 66 320 6.0 14.0 0.00 0.00 0.00 61 1024.9
20260905163403 67 21 8.0 13.0 0.00 0.00 0.00 61 1025.1
20260905162900 67 306 7.0 13.0 0.00 0.00 0.00 62 1025.0
20260905162401 67 336 6.0 13.0 0.00 0.00 0.00 62 1024.9
20260905161902 67 0 5.0 13.0 0.00 0.00 0.00 60 1024.8
20260905161402 67 3 5.0 14.0 0.00 0.00 0.00 60 1024.8
20260905160900 67 299 6.0 14.0 0.00 0.00 0.00 60 1024.8
20260905160400 67 281 6.0 15.0 0.00 0.00 0.00 59 1024.7
20260905155902 68 310 6.0 15.0 0.00 0.00 0.00 59 1024.8
20260905155401 68 340 3.0 17.0 0.00 0.00 0.00 59 1024.8
20260905154900 68 28 6.0 17.0 0.00 0.00 0.00 58 1024.7
20260905154402 68 357 8.0 18.0 0.00 0.00 0.00 59 1024.7
20260905153901 68 331 11.0 18.0 0.00 0.00 0.00 58 1024.6
20260905153749 69 293 4.0 14.0 0.00 0.00 0.00 57 1024.5
20260905152859 69 340 8.0 15.0 0.00 0.00 0.00 57 1024.5